Wind_Speed
49 49 48 48 47 47 46 45 44 43 42 41 40 40 39 38 37 36 35 35 34 34 33 33 33 32 31 30 30 30 30 29 29 29 29 28 28 28
48 48 47 47 46 45 44 43 42 42 41 40 39 38 38 37 36 35 34 34 33 33 32 32 32 31 31 31 30 30 30 30 30 29 29 28 28 28
47 46 45 45 44 44 43 42 41 40 39 38 38 37 36 35 34 34 33 33 33 32 32 32 31 31 31 31 31 31 30 30 30 30 30 30 30 30
46 45 44 44 44 43 42 40 40 39 38 37 36 35 34 34 33 33 32 32 32 32 32 31 31 31 31 31 32 32 32 32 32 32 32 32 32 32
45 45 44 44 43 42 40 39 38 37 37 36 35 34 33 33 32 32 31 31 31 31 31 31 31 32 32 32 33 33 33 34 34 34 34 35 35 35
44 44 43 42 40 39 38 37 36 36 35 34 33 33 32 31 31 31 31 31 31 31 31 32 32 33 33 33 34 35 35 36 36 36 37 37 37 37
42 42 41 39 38 38 36 35 35 34 33 33 32 32 31 31 31 31 31 31 32 32 32 33 33 34 34 35 36 36 37 38 38 38 38 39 39 39
40 39 38 37 36 35 35 34 33 33 32 32 31 31 31 30 30 30 31 31 32 32 33 34 35 35 36 37 37 38 39 39 39 39 40 40 40 40
37 36 35 35 34 33 33 32 32 32 31 31 31 30 30 30 30 31 31 32 32 33 34 35 36 36 37 38 39 39 39 40 40 40 41 41 41 41
34 34 33 32 32 31 31 31 31 30 30 30 30 30 30 30 30 31 32 32 33 34 35 36 36 37 38 39 39 39 40 41 41 41 42 43 43 43
32 32 32 31 31 31 30 30 30 30 30 30 30 30 30 30 31 32 32 33 34 35 36 36 37 38 39 40 40 40 41 41 41 42 42 43 43 44
31 30 30 30 29 29 29 29 29 29 29 29 30 30 30 31 32 32 33 34 35 36 37 37 38 39 40 41 41 41 41 41 41 42 42 43 43 43
29 29 29 29 29 29 28 28 29 29 29 30 30 30 31 32 32 33 34 35 35 37 37 38 39 39 40 41 41 41 41 41 42 42 42 42 42 42
28 28 28 28 28 28 28 28 29 29 30 30 30 31 32 32 33 34 35 36 36 37 38 38 39 40 40 40 41 42 42 42 42 42 41 41 41 41
28 28 28 28 28 28 28 29 29 30 30 30 31 31 32 33 34 35 36 37 37 38 38 39 39 40 40 40 41 42 42 42 42 41 41 40 40 40
28 28 28 28 28 29 29 30 30 31 31 31 32 32 33 34 35 36 36 37 38 39 39 39 40 41 41 41 41 42 41 41 41 41 40 40 39 39
27 28 28 29 29 29 30 30 31 31 32 32 33 34 34 35 36 36 37 38 38 39 40 40 41 42 42 42 42 41 41 41 41 40 40 39 39 38
28 29 29 30 30 31 31 32 32 33 33 34 34 35 36 36 37 37 38 38 39 40 40 41 42 42 42 42 42 42 41 41 41 40 39 37 37 37
30 30 31 31 32 32 33 33 34 34 34 35 36 36 37 37 37 38 38 39 40 40 41 42 42 42 41 41 42 42 41 41 41 40 38 36 35 34
31 31 32 32 33 33 34 34 35 35 35 36 36 37 37 37 38 39 39 40 40 41 42 42 43 42 42 41 41 42 42 41 40 39 37 36 34 33
32 33 33 33 34 34 35 35 35 35 36 36 37 37 38 39 39 40 40 40 41 42 42 43 43 43 42 41 40 41 42 41 39 38 36 35 33 33
34 34 34 34 35 35 36 36 36 36 37 38 38 39 39 40 40 40 41 41 42 42 42 43 44 43 42 41 40 40 41 41 40 38 36 34 32 31
34 35 35 35 36 36 36 37 37 38 39 39 39 40 40 41 41 41 41 42 42 42 43 43 44 43 42 41 40 40 40 39 38 37 36 34 32 30
Wind_Direction
283 284 285 285 287 288 288 289 290 290 291 292 292 293 294 294 294 295 295 296 297 297 298 297 297 296 295 295 295 293 291 290 290 289 288 287 284 280
282 282 283 284 285 286 287 288 289 290 290 290 291 291 292 292 294 294 295 296 297 298 298 297 297 296 295 295 295 294 292 291 290 289 287 286 283 280
282 282 283 284 284 285 286 287 288 289 290 290 290 291 291 292 293 293 294 296 297 298 298 297 297 296 296 296 295 294 293 291 290 289 287 285 284 282
280 280 281 282 283 284 284 285 286 287 288 289 290 290 291 291 292 293 294 296 297 298 298 298 297 297 296 296 295 294 294 293 291 289 288 287 285 283
279 280 281 281 281 282 282 284 285 286 287 287 288 289 290 291 292 293 295 295 297 298 298 298 298 297 296 296 295 295 294 293 292 289 287 286 284 282
278 279 279 279 280 280 281 283 284 285 285 286 287 288 289 290 292 293 294 295 297 297 298 298 297 297 296 296 295 295 294 293 291 289 287 286 284 282
277 277 277 277 277 278 280 281 283 284 284 285 286 287 289 290 292 293 294 296 297 298 299 299 298 298 297 296 295 295 294 293 291 289 287 286 284 282
277 276 276 276 277 277 279 280 281 283 283 284 285 287 288 289 291 293 295 296 297 299 299 300 300 299 298 297 297 296 295 294 291 289 287 285 284 282
275 274 274 275 276 277 278 279 280 282 282 284 285 286 287 289 291 293 295 297 298 299 301 301 301 300 300 299 298 297 296 295 292 290 288 286 284 282
273 273 274 274 275 276 277 278 280 281 282 283 284 286 287 290 292 294 295 297 299 301 302 302 302 301 301 301 300 299 298 297 294 291 289 287 285 283
273 273 273 273 274 275 276 278 279 280 282 283 284 286 288 290 293 295 296 298 301 302 303 303 303 303 303 302 301 301 300 298 296 293 291 289 287 284
272 272 272 273 274 275 276 277 279 280 282 283 285 287 289 291 293 296 297 299 301 303 304 304 304 304 304 303 303 303 302 301 299 297 294 292 289 286
271 272 272 273 274 275 276 277 279 281 282 284 285 288 290 292 294 296 298 300 302 303 304 304 305 305 305 305 305 305 304 304 302 300 297 294 290 287
272 272 273 274 274 274 276 278 280 282 283 284 286 288 291 293 295 297 299 300 302 303 304 305 305 306 306 306 306 306 306 306 305 303 300 296 293 290
272 272 273 273 273 275 276 279 281 282 284 285 287 289 291 293 295 297 299 301 302 304 304 304 305 306 306 306 307 307 307 308 307 306 303 299 295 292
272 272 272 273 274 275 278 280 282 283 285 287 289 290 292 294 296 298 299 301 302 304 304 304 306 307 307 307 307 307 308 308 308 308 306 302 298 295
273 273 273 274 275 276 278 280 282 284 286 287 289 291 293 294 296 298 299 301 302 304 305 305 306 307 307 307 308 308 308 309 310 309 306 304 301 298
273 273 274 275 276 278 279 280 283 285 286 287 289 292 293 295 296 298 299 301 302 303 304 305 306 308 308 307 308 308 309 310 311 310 308 306 303 300
274 274 275 276 277 278 280 281 283 285 286 288 290 292 293 294 296 298 299 300 302 303 304 305 307 308 307 307 307 308 309 311 312 311 309 307 304 301
274 275 276 277 278 279 281 282 284 285 286 288 290 291 293 294 296 298 299 300 301 303 304 305 307 307 307 306 306 307 309 311 311 311 309 307 305 302
275 276 277 278 279 280 281 282 284 285 287 288 290 291 292 294 295 297 299 300 302 303 304 305 306 307 306 305 306 306 308 309 311 310 308 307 306 304
276 276 277 278 279 280 281 282 284 286 287 288 290 291 292 293 295 297 298 300 302 303 304 305 306 306 306 305 305 305 306 308 310 310 308 306 305 304
277 277 278 279 280 280 281 282 284 285 287 288 290 291 292 293 295 296 297 299 301 302 304 305 305 305 305 304 305 305 305 306 308 309 308 306 305 304
Height
5747 5746 5744 5743 5741 5739 5737 5735 5733 5731 5729 5726 5723 5720 5718 5715 5713 5711 5708 5706 5703 5700 5698 5695 5693 5690 5688 5686 5684 5682 5680 5678 5677 5676 5674 5673 5672 5672
5736 5735 5733 5732 5730 5728 5726 5724 5722 5720 5718 5716 5714 5711 5709 5706 5704 5702 5700 5697 5695 5692 5690 5687 5684 5682 5680 5678 5676 5674 5672 5670 5669 5667 5666 5665 5664 5663
5724 5723 5722 5720 5719 5717 5716 5714 5712 5710 5708 5706 5704 5702 5700 5697 5695 5693 5691 5688 5686 5684 5681 5679 5676 5674 5672 5670 5668 5666 5664 5662 5660 5659 5657 5656 5655 5655
5713 5712 5711 5710 5708 5707 5705 5703 5702 5700 5699 5697 5694 5692 5691 5689 5687 5685 5682 5680 5678 5675 5673 5670 5668 5666 5663 5661 5659 5657 5655 5653 5651 5650 5648 5647 5646 5645
5701 5700 5699 5698 5697 5696 5695 5693 5692 5690 5689 5687 5685 5684 5682 5680 5678 5676 5674 5672 5669 5667 5664 5662 5659 5657 5655 5652 5650 5648 5645 5643 5641 5640 5638 5637 5635 5634
5690 5689 5688 5687 5686 5685 5684 5683 5682 5681 5679 5678 5676 5675 5673 5671 5669 5667 5665 5663 5661 5658 5656 5653 5651 5648 5646 5643 5641 5638 5635 5633 5631 5629 5627 5625 5624 5623
5679 5678 5677 5676 5676 5675 5674 5674 5673 5672 5670 5669 5667 5666 5664 5662 5661 5659 5657 5655 5652 5650 5647 5645 5642 5639 5636 5633 5630 5627 5625 5622 5619 5617 5614 5613 5611 5609
5668 5667 5667 5666 5666 5665 5665 5664 5663 5663 5661 5660 5659 5657 5656 5654 5652 5650 5648 5646 5644 5641 5638 5635 5632 5629 5626 5622 5619 5616 5613 5610 5606 5604 5602 5600 5598 5596
5657 5657 5656 5656 5656 5656 5655 5655 5654 5653 5653 5652 5650 5648 5647 5645 5644 5642 5640 5637 5635 5632 5628 5625 5622 5618 5615 5611 5608 5604 5601 5597 5594 5591 5588 5586 5584 5582
5647 5647 5647 5647 5647 5647 5646 5646 5645 5645 5644 5642 5641 5640 5638 5637 5635 5633 5631 5628 5625 5622 5619 5615 5611 5608 5604 5600 5596 5592 5588 5584 5580 5577 5574 5572 5569 5567
5638 5638 5638 5638 5638 5638 5638 5637 5636 5636 5635 5633 5632 5631 5629 5628 5626 5624 5621 5619 5615 5612 5609 5605 5601 5597 5593 5588 5584 5580 5576 5571 5567 5563 5560 5557 5554 5552
5629 5629 5629 5629 5629 5629 5629 5628 5628 5627 5626 5625 5623 5622 5620 5618 5616 5614 5612 5609 5606 5602 5598 5595 5590 5586 5582 5577 5572 5568 5563 5559 5554 5550 5546 5543 5539 5537
5620 5621 5621 5621 5620 5620 5620 5620 5619 5618 5617 5616 5615 5613 5611 5609 5607 5605 5602 5599 5596 5592 5588 5584 5580 5575 5571 5566 5560 5556 5551 5547 5542 5537 5532 5528 5525 5522
5612 5612 5612 5612 5612 5612 5611 5611 5610 5609 5608 5607 5606 5604 5602 5600 5598 5595 5592 5589 5585 5581 5577 5573 5569 5565 5560 5554 5549 5544 5539 5534 5529 5524 5519 5514 5510 5507
5604 5604 5604 5604 5603 5603 5603 5602 5601 5600 5599 5598 5596 5595 5593 5590 5588 5585 5581 5578 5574 5571 5566 5562 5558 5553 5549 5544 5538 5533 5528 5522 5517 5512 5506 5501 5497 5493
5596 5596 5596 5595 5595 5594 5594 5593 5592 5591 5590 5588 5587 5585 5583 5580 5577 5574 5571 5567 5564 5560 5556 5551 5547 5542 5537 5532 5527 5521 5516 5511 5505 5500 5494 5489 5484 5480
5587 5587 5587 5587 5586 5586 5585 5584 5583 5582 5580 5579 5577 5575 5572 5570 5567 5564 5561 5557 5553 5549 5544 5540 5535 5530 5525 5520 5515 5510 5504 5499 5494 5488 5482 5477 5471 5467
5579 5578 5578 5577 5577 5576 5575 5574 5573 5572 5570 5569 5567 5564 5562 5559 5556 5553 5550 5546 5542 5538 5533 5529 5524 5519 5514 5508 5503 5498 5493 5488 5482 5476 5471 5465 5460 5455
5570 5569 5568 5568 5567 5566 5566 5564 5563 5561 5560 5558 5556 5554 5551 5548 5545 5542 5539 5535 5531 5526 5522 5517 5513 5508 5503 5497 5491 5486 5482 5476 5471 5465 5460 5455 5450 5445
5560 5559 5559 5558 5557 5556 5555 5554 5552 5551 5549 5547 5545 5542 5540 5537 5534 5531 5527 5523 5519 5515 5510 5505 5501 5496 5491 5487 5481 5474 5470 5465 5460 5455 5449 5444 5440 5435
5550 5549 5548 5547 5547 5545 5544 5543 5541 5540 5538 5536 5533 5531 5528 5526 5522 5519 5515 5512 5508 5503 5498 5493 5489 5484 5479 5475 5470 5464 5458 5454 5449 5444 5439 5435 5431 5426
5539 5538 5538 5537 5536 5534 5533 5532 5530 5528 5526 5524 5522 5519 5516 5514 5510 5507 5504 5500 5496 5491 5487 5482 5477 5472 5467 5463 5458 5453 5448 5443 5438 5433 5429 5425 5422 5417
5528 5527 5526 5525 5524 5523 5521 5520 5518 5516 5514 5512 5510 5507 5504 5501 5498 5495 5491 5487 5483 5479 5475 5470 5464 5459 5455 5451 5447 5442 5437 5432 5428 5423 5418 5414 5412 5409